HODOYOSHI-3

Last updated on Sun Aug 31 2025 00:02:30 GMT+0000 (Coordinated Universal Time)

1 40015U 14033F 25242.21491178 .00002816 00000+0 33950-3 0 9998 2 40015 97.6166 52.6666 0032432 231.3420 128.4892 14.84227683604444
UTC large
Height (km)
Speed (km/s)
/
Latitude / Longitude
Inclination (degrees)
Orbital Period (minutes)
Azimuth
Elevation
Range (km)
Doppler Factor

Next 0 passes for location: London (51.5072 / 0.1276)

Sorry there are no passes over London.